User: anonymous   Login
Location: Unspecified
(0.0000°N, 0.0000°E)
Time: 21:32:43
(UTC+00:00)
Language:

CICERO 8 - Orbit

View from above orbital plane
View from above orbital plane
View from above satellite
View from above satellite

Ground track
Ground track

The orbit data is extracted from the following two-line orbital elements,

1 43737U 18096U   19047.50440569  .00001485  00000-0  57750-4 0  9998
2 43737  97.4737 117.6875 0024177  54.1856 306.1624 15.27410425 12116
Epoch (UTC): 16 February 2019 12:06:20
Eccentricity: 0.0024177
inclination: 97.4737°
perigee height: 467 km
apogee height: 500 km
right ascension of ascending node: 117.6875°
argument of perigee: 54.1856°
revolutions per day: 15.27410425
mean anomaly at epoch: 306.1624°
orbit number at epoch: 1211

The dashed part of the orbit path shows where the satellite is in the earth's shadow,  

DLR